When you browse on this site, cookies collect data to enhance your experience and personalize the content and advertising you see.
Visit our Privacy Policy to learn more. By continuing to use the site, you agree to this use of cookies and data.
  • In Latvia
  • List of Countries
  • For 7 days
  • Water Temperature
  • Satellite Maps
  • Weather Map
  • Weather Widgets
  • user-avatar
    Login

    Hourly Weather Prichtovskiy

    Today, 18 December, Tuesday

    Time Temperature Precipitation Wind Pressure Humidity
    00:00 0°C° 0 mm 3 mps 739 mmHg 82%
    01:00 0°C° 0 mm 3 mps 739 mmHg 82%
    02:00 +1°C° 0 mm 2 mps 740 mmHg 82%
    03:00 +1°C° 0 mm 2 mps 740 mmHg 84%
    04:00 +1°C° 0 mm 2 mps 740 mmHg 84%
    05:00 +1°C° 0 mm 2 mps 740 mmHg 84%
    06:00 +1°C° 0 mm 2 mps 740 mmHg 83%
    07:00 +2°C° 0 mm 2 mps 740 mmHg 82%
    08:00 +2°C° 0 mm 2 mps 740 mmHg 81%
    09:00 +3°C° 0 mm 2 mps 740 mmHg 81%
    10:00 +4°C° 0.1 mm 2 mps 740 mmHg 78%
    11:00 +5°C° 0.1 mm 2 mps 740 mmHg 75%
    12:00 +6°C° 0.1 mm 2 mps 741 mmHg 72%
    13:00 +7°C° 0.1 mm 2 mps 741 mmHg 74%
    14:00 +7°C° 0.1 mm 2 mps 741 mmHg 75%
    15:00 +7°C° 0.1 mm 2 mps 741 mmHg 77%
    16:00 +6°C° 0 mm 2 mps 741 mmHg 80%
    17:00 +5°C° 0 mm 2 mps 741 mmHg 84%
    18:00 +3°C° 0 mm 2 mps 741 mmHg 88%
    19:00 +3°C° 0 mm 2 mps 741 mmHg 87%
    20:00 +3°C° 0 mm 2 mps 741 mmHg 87%
    21:00 +3°C° 0 mm 2 mps 741 mmHg 87%
    22:00 +3°C° 0 mm 2 mps 741 mmHg 87%
    23:00 +3°C° 0 mm 2 mps 741 mmHg 87%

    Tomorrow, 19 December, Wednesday

    Time Temperature Precipitation Wind Pressure Humidity
    00:00 +3°C° 0 mm 2 mps 741 mmHg 87%
    01:00 +3°C° 0 mm 2 mps 741 mmHg 86%
    02:00 +3°C° 0 mm 2 mps 741 mmHg 86%
    03:00 +3°C° 0 mm 2 mps 741 mmHg 86%
    04:00 +3°C° 0 mm 2 mps 741 mmHg 86%
    05:00 +3°C° 0 mm 2 mps 741 mmHg 86%
    06:00 +3°C° 0 mm 2 mps 741 mmHg 86%
    07:00 +3°C° 0 mm 2 mps 741 mmHg 85%
    08:00 +3°C° 0 mm 2 mps 741 mmHg 84%
    09:00 +4°C° 0 mm 2 mps 741 mmHg 83%
    10:00 +4°C° 0 mm 3 mps 741 mmHg 79%
    11:00 +7°C° 0 mm 3 mps 740 mmHg 75%
    12:00 +8°C° 0 mm 3 mps 740 mmHg 71%
    13:00 +8°C° 0 mm 3 mps 740 mmHg 72%
    14:00 +8°C° 0 mm 3 mps 740 mmHg 73%
    15:00 +8°C° 0 mm 3 mps 739 mmHg 74%
    16:00 +7°C° 0 mm 3 mps 739 mmHg 77%
    17:00 +5°C° 0 mm 3 mps 739 mmHg 80%
    18:00 +4°C° 0 mm 3 mps 739 mmHg 83%
    19:00 +4°C° 0 mm 3 mps 739 mmHg 83%
    20:00 +4°C° 0 mm 3 mps 739 mmHg 82%
    21:00 +4°C° 0 mm 3 mps 739 mmHg 82%
    22:00 +4°C° 0 mm 3 mps 739 mmHg 82%
    23:00 +4°C° 0 mm 3 mps 739 mmHg 82%

    Day after tomorrow, 20 December, Thursday

    Time Temperature Precipitation Wind Pressure Humidity
    00:00 +3°C° 0 mm 3 mps 739 mmHg 83%
    01:00 +3°C° 0 mm 3 mps 739 mmHg 83%
    02:00 +3°C° 0 mm 3 mps 740 mmHg 83%
    03:00 +4°C° 0 mm 2 mps 740 mmHg 84%
    04:00 +4°C° 0 mm 2 mps 740 mmHg 84%
    05:00 +4°C° 0 mm 2 mps 740 mmHg 85%
    06:00 +4°C° 0 mm 2 mps 740 mmHg 85%
    07:00 +4°C° 0 mm 2 mps 740 mmHg 84%
    08:00 +4°C° 0 mm 2 mps 740 mmHg 84%
    09:00 +4°C° 0 mm 2 mps 740 mmHg 83%
    10:00 +5°C° 0 mm 2 mps 741 mmHg 79%
    11:00 +7°C° 0 mm 2 mps 741 mmHg 75%
    12:00 +8°C° 0 mm 2 mps 741 mmHg 71%
    13:00 +8°C° 0 mm 2 mps 741 mmHg 72%
    14:00 +8°C° 0 mm 2 mps 741 mmHg 73%
    15:00 +8°C° 0 mm 2 mps 741 mmHg 73%
    16:00 +7°C° 0 mm 2 mps 741 mmHg 78%
    17:00 +6°C° 0 mm 2 mps 742 mmHg 83%
    18:00 +5°C° 0 mm 1 mps 742 mmHg 88%
    19:00 +5°C° 0 mm 1 mps 742 mmHg 89%
    20:00 +5°C° 0 mm 1 mps 742 mmHg 90%
    21:00 +5°C° 0 mm 1 mps 743 mmHg 90%
    22:00 +4°C° 0 mm 1 mps 743 mmHg 91%
    23:00 +4°C° 0 mm 1 mps 743 mmHg 91%

    21 December, Friday

    Time Temperature Precipitation Wind Pressure Humidity
    00:00 +4°C° 0 mm 1 mps 743 mmHg 91%
    01:00 +4°C° 0 mm 1 mps 743 mmHg 92%
    02:00 +4°C° 0 mm 1 mps 744 mmHg 92%
    03:00 +4°C° 0 mm 1 mps 744 mmHg 92%
    04:00 +4°C° 0 mm 1 mps 744 mmHg 92%
    05:00 +4°C° 0 mm 1 mps 744 mmHg 92%
    06:00 +4°C° 0 mm 1 mps 744 mmHg 93%
    07:00 +4°C° 0 mm 1 mps 744 mmHg 92%
    08:00 +4°C° 0 mm 1 mps 744 mmHg 92%
    09:00 +4°C° 0 mm 1 mps 744 mmHg 91%
    10:00 +6°C° 0 mm 1 mps 744 mmHg 87%
    11:00 +7°C° 0 mm 1 mps 744 mmHg 83%
    12:00 +8°C° 0 mm 1 mps 744 mmHg 79%
    13:00 +8°C° 0 mm 1 mps 744 mmHg 80%
    14:00 +8°C° 0 mm 1 mps 744 mmHg 81%
    15:00 +8°C° 0 mm 1 mps 744 mmHg 81%
    16:00 +7°C° 0 mm 1 mps 744 mmHg 85%
    17:00 +6°C° 0 mm 1 mps 744 mmHg 88%
    18:00 +6°C° 0 mm 1 mps 744 mmHg 92%
    19:00 +6°C° 0 mm 1 mps 744 mmHg 92%
    20:00 +6°C° 0 mm 1 mps 743 mmHg 92%
    21:00 +6°C° 0 mm 1 mps 743 mmHg 91%
    22:00 +6°C° 0.1 mm 1 mps 743 mmHg 91%
    23:00 +6°C° 0.1 mm 1 mps 743 mmHg 91%

    22 December, Saturday

    Time Temperature Precipitation Wind Pressure Humidity
    00:00 +6°C° 0.1 mm 1 mps 742 mmHg 91%
    01:00 +6°C° 0 mm 1 mps 742 mmHg 91%
    02:00 +6°C° 0 mm 1 mps 742 mmHg 91%
    03:00 +6°C° 0 mm 1 mps 742 mmHg 92%
    04:00 +6°C° 0.1 mm 1 mps 741 mmHg 92%
    05:00 +6°C° 0.1 mm 1 mps 741 mmHg 93%
    06:00 +6°C° 0.1 mm 1 mps 741 mmHg 93%
    07:00 +5°C° 0.3 mm 0 mps 741 mmHg 94%
    08:00 +5°C° 0.3 mm 0 mps 741 mmHg 94%
    09:00 +5°C° 0.3 mm 0 mps 741 mmHg 94%
    10:00 +5°C° 0.5 mm 0 mps 741 mmHg 92%
    11:00 +7°C° 0.5 mm 1 mps 741 mmHg 91%
    12:00 +7°C° 0.5 mm 1 mps 741 mmHg 89%
    13:00 +7°C° 0.4 mm 1 mps 741 mmHg 89%
    14:00 +7°C° 0.4 mm 1 mps 741 mmHg 89%
    15:00 +7°C° 0.4 mm 1 mps 740 mmHg 88%
    16:00 +7°C° 0.4 mm 1 mps 741 mmHg 90%
    17:00 +7°C° 0.4 mm 1 mps 741 mmHg 93%
    18:00 +6°C° 0.4 mm 1 mps 741 mmHg 95%
    19:00 +6°C° 0.1 mm 1 mps 741 mmHg 95%
    20:00 +6°C° 0.1 mm 1 mps 741 mmHg 95%
    21:00 +6°C° 0.1 mm 1 mps 741 mmHg 94%
    22:00 +6°C° 0.1 mm 1 mps 741 mmHg 93%
    23:00 +5°C° 0.1 mm 2 mps 741 mmHg 92%

    23 December, Sunday

    Time Temperature Precipitation Wind Pressure Humidity
    00:00 +5°C° 0.1 mm 2 mps 741 mmHg 91%
    01:00 +5°C° 0 mm 2 mps 741 mmHg 89%
    02:00 +5°C° 0 mm 2 mps 741 mmHg 88%
    03:00 +5°C° 0 mm 2 mps 740 mmHg 86%
    04:00 +5°C° 0.3 mm 2 mps 740 mmHg 86%
    05:00 +4°C° 0.3 mm 3 mps 740 mmHg 85%
    06:00 +4°C° 0.3 mm 3 mps 740 mmHg 85%
    07:00 +4°C° 0.2 mm 3 mps 740 mmHg 83%
    08:00 +4°C° 0.2 mm 3 mps 739 mmHg 81%
    09:00 +5°C° 0.2 mm 4 mps 739 mmHg 79%
    10:00 +5°C° 0.3 mm 4 mps 739 mmHg 77%
    11:00 +6°C° 0.3 mm 4 mps 739 mmHg 74%
    12:00 +7°C° 0.3 mm 4 mps 739 mmHg 72%
    13:00 +7°C° 0.3 mm 4 mps 738 mmHg 73%
    14:00 +7°C° 0.3 mm 5 mps 738 mmHg 74%
    15:00 +7°C° 0.3 mm 5 mps 738 mmHg 74%
    16:00 +6°C° 0.3 mm 4 mps 738 mmHg 77%
    17:00 +6°C° 0.3 mm 4 mps 738 mmHg 79%
    18:00 +6°C° 0.3 mm 4 mps 738 mmHg 82%
    19:00 +5°C° 0.4 mm 4 mps 738 mmHg 81%
    20:00 +5°C° 0.4 mm 4 mps 737 mmHg 81%
    21:00 +5°C° 0.4 mm 4 mps 737 mmHg 80%
    22:00 +5°C° 0.6 mm 4 mps 737 mmHg 80%
    23:00 +5°C° 0.6 mm 4 mps 736 mmHg 79%
    Show more